ZHONGXING-2D

Last updated on Mon Jun 22 2026 00:03:06 GMT+0000 (Coordinated Universal Time)

1 43920U 19001A 26172.55837017 -.00000338 00000+0 00000+0 0 9996 2 43920 0.0414 195.9171 0001289 142.6089 262.2405 1.00269477 54121
UTC large
Height (km)
Speed (km/s)
/
Latitude / Longitude
Inclination (degrees)
Orbital Period (minutes)
Azimuth
Elevation
Range (km)
Doppler Factor

Next 0 passes for location: London (51.5072 / 0.1276)

No passes found over London.
ZHONGXING-2D